[Profile Register/Log In] (What's This?)

[TLELIST]

Subscribe/Unsubscribe on [TLELIST]

* Required



List Information:

  • This list is an announce-only list.

International Space Station (ISS) / Hubble Space Telescope (HST) / Chandra X-Ray Observatory Orbital Data via EMAIL

Privacy Policy:

Private list

Archives:

  1. [TLELIST] Current TLEs
    Sent February 4th 2012

    HST 1 20580U 90037B 12035.06600358 .00001502 00000-0 98906-4 0 9379 2 20580 028.4712 301.0061 0003481 070.7555 289.3392 15.02159347994541 ISS (ZARYA) 1 25544U 98067A 12035.41846065 .00007529 00000-0 10173-3 0 9465 2 25544 051.6420 073.0521 002...

  2. [TLELIST] Current TLEs
    Sent February 3rd 2012

    HST 1 20580U 90037B 12033.80363283 .00001564 00000-0 10354-3 0 9369 2 20580 028.4724 309.2623 0003558 058.6018 301.4443 15.02156561994359 ISS (ZARYA) 1 25544U 98067A 12034.44545880 .00011316 00000-0 14957-3 0 9393 2 25544 051.6417 077.9305 002...

  3. [TLELIST] Current TLEs
    Sent February 2nd 2012

    HST 1 20580U 90037B 12031.21246546 .00001872 00000-0 12639-3 0 9342 2 20580 028.4714 326.2091 0003403 033.4542 326.6189 15.02151057993965 ISS (ZARYA) 1 25544U 98067A 12033.41296711 .00012414 00000-0 16357-3 0 9357 2 25544 051.6420 083.1170 002...

  4. [TLELIST] Current TLEs
    Sent February 1st 2012

    HST 1 20580U 90037B 12031.21246546 .00001872 00000-0 12639-3 0 9342 2 20580 028.4714 326.2091 0003403 033.4542 326.6189 15.02151057993965 ISS (ZARYA) 1 25544U 98067A 12032.19682069 .00011877 00000-0 15693-3 0 9271 2 25544 051.6422 089.2176 002...

  5. [TLELIST] Current TLEs
    Sent January 31st 2012

    HST 1 20580U 90037B 12031.21246546 .00001872 00000-0 12639-3 0 9342 2 20580 028.4714 326.2091 0003403 033.4542 326.6189 15.02151057993965 ISS (ZARYA) 1 25544U 98067A 12031.36221133 .00012086 00000-0 15974-3 0 9220 2 25544 051.6423 093.4073 001...

  6. [TLELIST] Current TLEs
    Sent January 30th 2012

    HST 1 20580U 90037B 12030.21585623 .00001983 00000-0 13465-3 0 9333 2 20580 028.4714 332.7259 0003350 023.0071 337.0570 15.02148486993812 ISS (ZARYA) 1 25544U 98067A 12030.34014478 .00009184 00000-0 12319-3 0 9167 2 25544 051.6420 098.5390 001...

  7. [TLELIST] Current TLEs
    Sent January 29th 2012

    HST 1 20580U 90037B 12029.21924635 .00002158 00000-0 14762-3 0 9326 2 20580 028.4705 339.2446 0003305 012.7538 347.3082 15.02146120993663 ISS (ZARYA) 1 25544U 98067A 12029.45261574 .00018555 00000-0 24183-3 0 9106 2 25544 051.6405 102.9912 002...

  8. [TLELIST] Current TLEs
    Sent January 28th 2012

    HST 1 20580U 90037B 12028.22263741 .00002235 00000-0 15339-3 0 9316 2 20580 028.4701 345.7613 0003309 002.4278 357.6444 15.02142781993517 ISS (ZARYA) 1 25544U 98067A 12028.21050258 .00020287 00000-0 25729-3 0 9038 2 25544 051.6431 109.2230 002...

  9. [TLELIST] Current TLEs
    Sent January 27th 2012

    HST 1 20580U 90037B 12026.22940686 .00002061 00000-0 14050-3 0 9309 2 20580 028.4705 358.8017 0003110 335.4313 024.6203 15.02133642993210 ISS (ZARYA) 1 25544U 98067A 12027.44292461 .00018665 00000-0 23767-3 0 8986 2 25544 051.6432 113.0816 002...

  10. [TLELIST] Current TLEs
    Sent January 26th 2012

    HST 1 20580U 90037B 12026.22940686 .00002061 00000-0 14050-3 0 9309 2 20580 028.4705 358.8017 0003110 335.4313 024.6203 15.02133642993210 ISS (ZARYA) 1 25544U 98067A 12026.42524796 .00022402 00000-0 28410-3 0 8920 2 25544 051.6424 118.1882 002...

< <Previous

Archive Index

 

this list's archives:

(archive rss , atom )

Administration